| time (UTC) | temp F | wind direction | speed MPH | gust MPH | rain 1hr in | rain 24hr in | rain mn in | humidity % | barometer mb |
| 20260510151503 | 56 | 23 | 9.0 | 20.0 | 0.00 | 0.00 | 0.00 | 53 | 1015.2 |
| 20260510151003 | 57 | 33 | 7.0 | 15.0 | 0.00 | 0.00 | 0.00 | 53 | 1015.2 |
| 20260510150503 | 57 | 36 | 6.0 | 14.0 | 0.00 | 0.00 | 0.00 | 54 | 1015.2 |
| 20260510150003 | 57 | 32 | 7.0 | 19.0 | 0.00 | 0.00 | 0.00 | 55 | 1015.2 |
| 20260510145503 | 56 | 20 | 8.0 | 19.0 | 0.00 | 0.00 | 0.00 | 54 | 1015.4 |
| 20260510145003 | 56 | 23 | 7.0 | 14.0 | 0.00 | 0.00 | 0.00 | 55 | 1015.4 |
| 20260510144503 | 56 | 31 | 7.0 | 14.0 | 0.00 | 0.00 | 0.00 | 54 | 1015.4 |
| 20260510144003 | 56 | 36 | 7.0 | 17.0 | 0.00 | 0.00 | 0.00 | 57 | 1015.6 |
| 20260510143714 | 56 | 34 | 8.0 | 17.0 | 0.00 | 0.00 | 0.00 | 56 | 1015.6 |
| 20260510143217 | 56 | 23 | 8.0 | 17.0 | 0.00 | 0.00 | 0.00 | 55 | 1015.6 |
| 20260510142503 | 56 | 24 | 8.0 | 19.0 | 0.00 | 0.00 | 0.00 | 55 | 1015.7 |
| 20260510142003 | 56 | 37 | 7.0 | 15.0 | 0.00 | 0.00 | 0.00 | 58 | 1015.7 |
| 20260510141503 | 55 | 50 | 7.0 | 14.0 | 0.00 | 0.00 | 0.00 | 58 | 1015.7 |
| 20260510141003 | 55 | 36 | 8.0 | 18.0 | 0.00 | 0.00 | 0.00 | 59 | 1015.8 |
| 20260510140717 | 55 | 23 | 8.0 | 18.0 | 0.00 | 0.00 | 0.00 | 59 | 1015.8 |
| 20260510140003 | 55 | 29 | 9.0 | 18.0 | 0.00 | 0.00 | 0.00 | 58 | 1015.8 |
| 20260510135504 | 55 | 33 | 9.0 | 18.0 | 0.00 | 0.00 | 0.00 | 59 | 1015.8 |
| 20260510135005 | 55 | 29 | 9.0 | 15.0 | 0.00 | 0.00 | 0.00 | 59 | 1015.8 |
| 20260510134714 | 55 | 25 | 8.0 | 15.0 | 0.00 | 0.00 | 0.00 | 59 | 1015.8 |
| 20260510134004 | 55 | 22 | 7.0 | 14.0 | 0.00 | 0.00 | 0.00 | 59 | 1016.2 |
| 20260510133503 | 55 | 23 | 8.0 | 15.0 | 0.00 | 0.00 | 0.00 | 59 | 1016.2 |
| 20260510133003 | 55 | 28 | 8.0 | 15.0 | 0.00 | 0.00 | 0.00 | 59 | 1016.2 |
| 20260510132504 | 55 | 42 | 8.0 | 17.0 | 0.00 | 0.00 | 0.00 | 59 | 1016.3 |
| 20260510132003 | 55 | 45 | 8.0 | 17.0 | 0.00 | 0.00 | 0.00 | 59 | 1016.3 |
| 20260510131504 | 55 | 28 | 7.0 | 17.0 | 0.00 | 0.00 | 0.00 | 61 | 1016.3 |
| 20260510131003 | 54 | 25 | 8.0 | 17.0 | 0.00 | 0.00 | 0.00 | 61 | 1016.3 |
| 20260510130503 | 54 | 23 | 8.0 | 18.0 | 0.00 | 0.00 | 0.00 | 61 | 1016.3 |
| 20260510130216 | 54 | 25 | 8.0 | 18.0 | 0.00 | 0.00 | 0.00 | 62 | 1016.3 |
| 20260510125504 | 54 | 27 | 7.0 | 15.0 | 0.00 | 0.00 | 0.00 | 63 | 1016.4 |
| 20260510125003 | 53 | 28 | 8.0 | 17.0 | 0.00 | 0.00 | 0.00 | 63 | 1016.4 |
| 20260510124504 | 53 | 29 | 9.0 | 18.0 | 0.00 | 0.00 | 0.00 | 63 | 1016.4 |
| 20260510124003 | 54 | 29 | 8.0 | 18.0 | 0.00 | 0.00 | 0.00 | 62 | 1016.6 |
| 20260510123504 | 54 | 38 | 8.0 | 19.0 | 0.00 | 0.00 | 0.00 | 62 | 1016.6 |
| 20260510123003 | 55 | 42 | 8.0 | 19.0 | 0.00 | 0.00 | 0.00 | 61 | 1016.6 |
| 20260510122504 | 55 | 27 | 8.0 | 15.0 | 0.00 | 0.00 | 0.00 | 62 | 1016.7 |
| 20260510122018 | 54 | 16 | 9.0 | 18.0 | 0.00 | 0.00 | 0.00 | 62 | 1016.7 |
| 20260510121503 | 54 | 16 | 8.0 | 18.0 | 0.00 | 0.00 | 0.00 | 64 | 1016.7 |
| 20260510121003 | 54 | 21 | 8.0 | 15.0 | 0.00 | 0.00 | 0.00 | 65 | 1016.9 |
| 20260510120504 | 54 | 29 | 7.0 | 15.0 | 0.00 | 0.00 | 0.00 | 65 | 1016.9 |
| 20260510120004 | 54 | 33 | 7.0 | 15.0 | 0.00 | 0.00 | 0.00 | 66 | 1016.9 |
| 20260510115714 | 53 | 28 | 7.0 | 15.0 | 0.00 | 0.00 | 0.00 | 66 | 1017.0 |
| 20260510115003 | 54 | 36 | 8.0 | 18.0 | 0.00 | 0.00 | 0.00 | 67 | 1017.0 |
| 20260510114504 | 53 | 35 | 8.0 | 17.0 | 0.00 | 0.00 | 0.00 | 67 | 1017.0 |
| 20260510114003 | 53 | 30 | 8.0 | 15.0 | 0.00 | 0.00 | 0.00 | 67 | 1017.1 |
| 20260510113716 | 53 | 28 | 8.0 | 15.0 | 0.00 | 0.00 | 0.00 | 66 | 1017.1 |
| 20260510113005 | 54 | 25 | 7.0 | 15.0 | 0.00 | 0.00 | 0.00 | 66 | 1017.1 |
| 20260510112503 | 54 | 33 | 7.0 | 15.0 | 0.00 | 0.00 | 0.00 | 66 | 1017.2 |
| 20260510112215 | 54 | 33 | 6.0 | 15.0 | 0.00 | 0.00 | 0.00 | 67 | 1017.2 |
| 20260510111503 | 53 | 26 | 7.0 | 17.0 | 0.00 | 0.00 | 0.00 | 67 | 1017.2 |
| 20260510111003 | 53 | 23 | 9.0 | 18.0 | 0.00 | 0.00 | 0.00 | 67 | 1017.3 |
| 20260510110504 | 53 | 29 | 8.0 | 18.0 | 0.00 | 0.00 | 0.00 | 67 | 1017.3 |
| 20260510110003 | 53 | 38 | 8.0 | 14.0 | 0.00 | 0.00 | 0.00 | 68 | 1017.3 |
| 20260510105504 | 53 | 13 | 9.0 | 15.0 | 0.00 | 0.00 | 0.00 | 68 | 1017.3 |
| 20260510105218 | 53 | 10 | 10.0 | 15.0 | 0.00 | 0.00 | 0.00 | 68 | 1017.3 |
| 20260510104716 | 53 | 16 | 9.0 | 20.0 | 0.00 | 0.00 | 0.00 | 69 | 1017.3 |
| 20260510104214 | 52 | 18 | 9.0 | 20.0 | 0.00 | 0.00 | 0.00 | 69 | 1017.3 |
| 20260510103503 | 53 | 23 | 8.0 | 17.0 | 0.00 | 0.00 | 0.00 | 69 | 1017.3 |
| 20260510103215 | 53 | 27 | 8.0 | 15.0 | 0.00 | 0.00 | 0.00 | 70 | 1017.3 |
| 20260510102503 | 52 | 36 | 7.0 | 17.0 | 0.00 | 0.00 | 0.00 | 71 | 1017.5 |
| 20260510102004 | 52 | 40 | 8.0 | 19.0 | 0.00 | 0.00 | 0.00 | 73 | 1017.5 |
| 20260510101503 | 52 | 34 | 8.0 | 19.0 | 0.00 | 0.00 | 0.00 | 72 | 1017.5 |
| 20260510101003 | 52 | 32 | 8.0 | 17.0 | 0.00 | 0.00 | 0.00 | 73 | 1017.6 |
| 20260510100505 | 52 | 36 | 8.0 | 17.0 | 0.00 | 0.00 | 0.00 | 73 | 1017.6 |
| 20260510100004 | 52 | 48 | 8.0 | 17.0 | 0.00 | 0.00 | 0.00 | 74 | 1017.6 |
| 20260510095504 | 52 | 49 | 8.0 | 17.0 | 0.00 | 0.00 | 0.00 | 74 | 1017.7 |
| 20260510095003 | 52 | 37 | 8.0 | 17.0 | 0.00 | 0.00 | 0.00 | 74 | 1017.7 |
| 20260510094503 | 52 | 31 | 8.0 | 15.0 | 0.00 | 0.00 | 0.00 | 74 | 1017.7 |
| 20260510094003 | 52 | 28 | 7.0 | 14.0 | 0.00 | 0.00 | 0.00 | 74 | 1017.5 |
| 20260510093503 | 52 | 27 | 8.0 | 15.0 | 0.00 | 0.00 | 0.00 | 75 | 1017.5 |
| 20260510093003 | 52 | 30 | 7.0 | 17.0 | 0.00 | 0.00 | 0.00 | 76 | 1017.5 |
| 20260510092713 | 52 | 33 | 9.0 | 18.0 | 0.00 | 0.00 | 0.00 | 76 | 1017.6 |
| 20260510092004 | 52 | 28 | 9.0 | 18.0 | 0.00 | 0.00 | 0.00 | 76 | 1017.6 |
| 20260510091503 | 52 | 26 | 8.0 | 18.0 | 0.00 | 0.00 | 0.00 | 76 | 1017.6 |
| 20260510091004 | 52 | 32 | 7.0 | 15.0 | 0.00 | 0.00 | 0.00 | 77 | 1017.7 |
| 20260510090505 | 52 | 37 | 7.0 | 17.0 | 0.00 | 0.00 | 0.00 | 77 | 1017.7 |
| 20260510090004 | 52 | 35 | 8.0 | 17.0 | 0.00 | 0.00 | 0.00 | 78 | 1017.7 |
| 20260510085503 | 52 | 37 | 7.0 | 15.0 | 0.00 | 0.00 | 0.00 | 78 | 1017.8 |
| 20260510085004 | 51 | 39 | 7.0 | 15.0 | 0.00 | 0.00 | 0.00 | 79 | 1017.8 |
| 20260510084504 | 51 | 33 | 8.0 | 17.0 | 0.00 | 0.00 | 0.00 | 79 | 1017.8 |
| 20260510084004 | 51 | 32 | 8.0 | 18.0 | 0.00 | 0.00 | 0.00 | 80 | 1017.8 |
| 20260510083504 | 51 | 29 | 8.0 | 18.0 | 0.00 | 0.00 | 0.00 | 80 | 1017.8 |
| 20260510083003 | 51 | 24 | 9.0 | 17.0 | 0.00 | 0.00 | 0.00 | 82 | 1017.8 |
| 20260510082714 | 51 | 25 | 9.0 | 17.0 | 0.00 | 0.00 | 0.00 | 83 | 1017.9 |
| 20260510082005 | 50 | 26 | 8.0 | 18.0 | 0.00 | 0.00 | 0.00 | 86 | 1017.9 |
| 20260510081715 | 50 | 28 | 9.0 | 22.0 | 0.00 | 0.00 | 0.00 | 86 | 1017.9 |
| 20260510081003 | 50 | 25 | 9.0 | 22.0 | 0.00 | 0.00 | 0.00 | 86 | 1018.0 |
| 20260510080503 | 50 | 23 | 8.0 | 17.0 | 0.00 | 0.00 | 0.00 | 87 | 1018.0 |
| 20260510080003 | 50 | 22 | 7.0 | 17.0 | 0.00 | 0.00 | 0.00 | 88 | 1018.0 |
| 20260510075717 | 50 | 22 | 7.0 | 19.0 | 0.00 | 0.00 | 0.00 | 88 | 1018.0 |
| 20260510075003 | 50 | 17 | 9.0 | 19.0 | 0.00 | 0.00 | 0.00 | 89 | 1018.0 |
| 20260510074503 | 49 | 17 | 7.0 | 19.0 | 0.00 | 0.00 | 0.00 | 89 | 1018.0 |
| 20260510074003 | 49 | 19 | 6.0 | 13.0 | 0.00 | 0.00 | 0.00 | 90 | 1017.9 |
| 20260510073503 | 49 | 19 | 6.0 | 14.0 | 0.00 | 0.00 | 0.00 | 91 | 1017.9 |
| 20260510073217 | 49 | 23 | 6.0 | 14.0 | 0.00 | 0.00 | 0.00 | 91 | 1017.9 |
| 20260510072504 | 49 | 24 | 7.0 | 17.0 | 0.00 | 0.00 | 0.00 | 91 | 1017.8 |
| 20260510072004 | 49 | 22 | 6.0 | 13.0 | 0.00 | 0.00 | 0.00 | 92 | 1017.8 |
| 20260510071504 | 49 | 18 | 6.0 | 13.0 | 0.00 | 0.00 | 0.00 | 92 | 1017.8 |
| 20260510071214 | 49 | 16 | 6.0 | 13.0 | 0.00 | 0.00 | 0.00 | 92 | 1017.7 |
| 20260510070503 | 49 | 20 | 5.0 | 11.0 | 0.00 | 0.00 | 0.00 | 92 | 1017.7 |
| 20260510070214 | 49 | 18 | 5.0 | 12.0 | 0.00 | 0.00 | 0.00 | 93 | 1017.7 |
| 20260510065504 | 49 | 10 | 6.0 | 13.0 | 0.00 | 0.00 | 0.00 | 93 | 1017.8 |
| 20260510065005 | 49 | 12 | 5.0 | 12.0 | 0.00 | 0.00 | 0.00 | 93 | 1017.8 |
| 20260510064503 | 48 | 15 | 5.0 | 12.0 | 0.00 | 0.00 | 0.00 | 93 | 1017.8 |
| 20260510064003 | 48 | 16 | 5.0 | 11.0 | 0.00 | 0.00 | 0.00 | 93 | 1017.7 |
| 20260510063503 | 48 | 13 | 5.0 | 11.0 | 0.00 | 0.00 | 0.00 | 93 | 1017.7 |
| 20260510063003 | 48 | 9 | 5.0 | 12.0 | 0.00 | 0.00 | 0.00 | 93 | 1017.7 |
| 20260510062715 | 48 | 9 | 5.0 | 12.0 | 0.00 | 0.00 | 0.00 | 93 | 1017.7 |
| 20260510062004 | 48 | 12 | 4.0 | 13.0 | 0.00 | 0.00 | 0.00 | 94 | 1017.7 |
| 20260510061505 | 48 | 12 | 4.0 | 12.0 | 0.00 | 0.00 | 0.00 | 94 | 1017.7 |
| 20260510061003 | 48 | 11 | 4.0 | 12.0 | 0.00 | 0.00 | 0.00 | 94 | 1017.7 |
| 20260510060503 | 48 | 14 | 4.0 | 11.0 | 0.00 | 0.00 | 0.00 | 94 | 1017.7 |
| 20260510060003 | 48 | 15 | 4.0 | 11.0 | 0.00 | 0.00 | 0.00 | 94 | 1017.7 |
| 20260510055504 | 48 | 18 | 4.0 | 9.0 | 0.00 | 0.00 | 0.00 | 94 | 1017.6 |
| 20260510055003 | 47 | 22 | 4.0 | 9.0 | 0.00 | 0.00 | 0.00 | 94 | 1017.6 |
| 20260510054503 | 47 | 17 | 4.0 | 7.0 | 0.00 | 0.00 | 0.00 | 94 | 1017.6 |
| 20260510054003 | 47 | 13 | 4.0 | 9.0 | 0.00 | 0.00 | 0.00 | 94 | 1017.6 |
| 20260510053504 | 47 | 16 | 4.0 | 11.0 | 0.00 | 0.00 | 0.00 | 94 | 1017.6 |
| 20260510053003 | 47 | 18 | 3.0 | 11.0 | 0.00 | 0.00 | 0.00 | 94 | 1017.6 |
| 20260510052504 | 47 | 11 | 3.0 | 9.0 | 0.00 | 0.00 | 0.00 | 94 | 1017.6 |
| 20260510052004 | 47 | 7 | 4.0 | 11.0 | 0.00 | 0.00 | 0.00 | 94 | 1017.6 |
| 20260510051504 | 47 | 4 | 4.0 | 11.0 | 0.00 | 0.00 | 0.00 | 94 | 1017.6 |
| 20260510051003 | 46 | 6 | 4.0 | 10.0 | 0.00 | 0.00 | 0.00 | 94 | 1017.7 |
| 20260510050718 | 46 | 8 | 5.0 | 10.0 | 0.00 | 0.00 | 0.00 | 94 | 1017.7 |
| 20260510050216 | 46 | 4 | 5.0 | 9.0 | 0.00 | 0.00 | 0.00 | 94 | 1017.7 |
| 20260510045504 | 46 | 357 | 4.0 | 9.0 | 0.00 | 0.00 | 0.00 | 93 | 1017.7 |
| 20260510045004 | 46 | 360 | 4.0 | 7.0 | 0.00 | 0.00 | 0.00 | 93 | 1017.7 |
| 20260510044503 | 46 | 4 | 4.0 | 9.0 | 0.00 | 0.00 | 0.00 | 93 | 1017.7 |
| 20260510044004 | 46 | 8 | 3.0 | 9.0 | 0.00 | 0.00 | 0.00 | 93 | 1017.7 |
| 20260510043503 | 46 | 9 | 2.0 | 6.0 | 0.00 | 0.00 | 0.00 | 93 | 1017.7 |
| 20260510043004 | 45 | 4 | 2.0 | 6.0 | 0.00 | 0.00 | 0.00 | 93 | 1017.7 |
| 20260510042717 | 45 | 3 | 2.0 | 6.0 | 0.00 | 0.00 | 0.00 | 93 | 1017.7 |
| 20260510042003 | 45 | 8 | 3.0 | 7.0 | 0.00 | 0.00 | 0.00 | 93 | 1017.7 |
| 20260510041504 | 45 | 12 | 2.0 | 7.0 | 0.00 | 0.00 | 0.00 | 93 | 1017.7 |
| 20260510041003 | 45 | 8 | 2.0 | 6.0 | 0.00 | 0.00 | 0.00 | 93 | 1017.7 |
| 20260510040503 | 45 | 360 | 1.0 | 4.0 | 0.00 | 0.00 | 0.00 | 92 | 1017.7 |
| 20260510040216 | 45 | 3 | 1.0 | 5.0 | 0.00 | 0.00 | 0.00 | 92 | 1017.7 |
| 20260510035504 | 45 | 5 | 1.0 | 5.0 | 0.00 | 0.00 | 0.00 | 92 | 1017.8 |
| 20260510035004 | 45 | 5 | 2.0 | 5.0 | 0.00 | 0.00 | 0.00 | 92 | 1017.8 |
| 20260510034504 | 45 | 359 | 2.0 | 5.0 | 0.00 | 0.00 | 0.00 | 92 | 1017.8 |
| 20260510034003 | 45 | 356 | 3.0 | 5.0 | 0.00 | 0.00 | 0.00 | 92 | 1017.9 |
| 20260510033503 | 45 | 357 | 3.0 | 6.0 | 0.00 | 0.00 | 0.00 | 92 | 1017.9 |
| 20260510033214 | 45 | 359 | 3.0 | 6.0 | 0.00 | 0.00 | 0.00 | 92 | 1017.9 |
| 20260510032503 | 45 | 360 | 2.0 | 5.0 | 0.00 | 0.00 | 0.00 | 92 | 1018.2 |
| 20260510032004 | 45 | 360 | 2.0 | 5.0 | 0.00 | 0.00 | 0.00 | 92 | 1018.2 |
| 20260510031718 | 45 | 359 | 2.0 | 5.0 | 0.00 | 0.00 | 0.00 | 92 | 1018.2 |
| 20260510031004 | 45 | 359 | 3.0 | 5.0 | 0.00 | 0.00 | 0.00 | 92 | 1018.1 |
| 20260510030503 | 46 | 1 | 3.0 | 5.0 | 0.00 | 0.00 | 0.00 | 92 | 1018.1 |
| 20260510030003 | 46 | 2 | 2.0 | 5.0 | 0.00 | 0.00 | 0.00 | 92 | 1018.1 |
| 20260510025503 | 46 | 1 | 3.0 | 6.0 | 0.00 | 0.00 | 0.00 | 92 | 1018.2 |
| 20260510025003 | 46 | 1 | 3.0 | 7.0 | 0.00 | 0.00 | 0.00 | 92 | 1018.2 |
| 20260510024503 | 46 | 360 | 3.0 | 7.0 | 0.00 | 0.00 | 0.00 | 92 | 1018.2 |
| 20260510024004 | 46 | 6 | 3.0 | 6.0 | 0.00 | 0.00 | 0.00 | 91 | 1018.3 |
| 20260510023503 | 46 | 8 | 2.0 | 6.0 | 0.00 | 0.00 | 0.00 | 91 | 1018.3 |
| 20260510023215 | 46 | 5 | 2.0 | 6.0 | 0.00 | 0.00 | 0.00 | 91 | 1018.3 |
| 20260510022713 | 47 | 2 | 2.0 | 7.0 | 0.00 | 0.00 | 0.00 | 91 | 1018.2 |
| 20260510022003 | 47 | 2 | 3.0 | 7.0 | 0.00 | 0.00 | 0.00 | 91 | 1018.2 |
| 20260510021503 | 47 | 6 | 3.0 | 7.0 | 0.00 | 0.00 | 0.00 | 91 | 1018.2 |
| 20260510021005 | 47 | 13 | 2.0 | 9.0 | 0.00 | 0.00 | 0.00 | 91 | 1018.1 |
| 20260510020503 | 47 | 10 | 3.0 | 9.0 | 0.00 | 0.00 | 0.00 | 91 | 1018.1 |
| 20260510020003 | 48 | 7 | 4.0 | 7.0 | 0.00 | 0.00 | 0.00 | 91 | 1018.1 |
| 20260510015503 | 48 | 7 | 4.0 | 7.0 | 0.00 | 0.00 | 0.00 | 91 | 1018.2 |
| 20260510015003 | 48 | 9 | 3.0 | 7.0 | 0.00 | 0.00 | 0.00 | 91 | 1018.2 |
| 20260510014503 | 48 | 5 | 4.0 | 9.0 | 0.00 | 0.00 | 0.00 | 91 | 1018.2 |
| 20260510014215 | 48 | 3 | 4.0 | 9.0 | 0.00 | 0.00 | 0.00 | 91 | 1018.2 |
| 20260510013504 | 48 | 7 | 3.0 | 7.0 | 0.00 | 0.00 | 0.00 | 91 | 1018.2 |
| 20260510013005 | 48 | 6 | 3.0 | 7.0 | 0.00 | 0.00 | 0.00 | 91 | 1018.2 |
| 20260510012504 | 48 | 1 | 4.0 | 11.0 | 0.00 | 0.00 | 0.00 | 90 | 1018.2 |
| 20260510012003 | 47 | 1 | 4.0 | 11.0 | 0.00 | 0.00 | 0.00 | 90 | 1018.2 |
| 20260510011504 | 47 | 3 | 4.0 | 9.0 | 0.00 | 0.00 | 0.00 | 90 | 1018.2 |
| 20260510011004 | 47 | 7 | 3.0 | 9.0 | 0.00 | 0.00 | 0.00 | 90 | 1018.2 |
| 20260510010503 | 47 | 10 | 3.0 | 9.0 | 0.00 | 0.00 | 0.00 | 90 | 1018.2 |
| 20260510010005 | 48 | 13 | 3.0 | 9.0 | 0.00 | 0.00 | 0.00 | 90 | 1018.2 |
| 20260510005503 | 48 | 17 | 3.0 | 9.0 | 0.00 | 0.00 | 0.00 | 89 | 1018.2 |
| 20260510005003 | 48 | 17 | 3.0 | 6.0 | 0.00 | 0.00 | 0.00 | 89 | 1018.2 |
| 20260510004503 | 48 | 15 | 3.0 | 6.0 | 0.00 | 0.00 | 0.00 | 89 | 1018.2 |
| 20260510004215 | 48 | 14 | 3.0 | 6.0 | 0.00 | 0.00 | 0.00 | 89 | 1018.2 |
| 20260510003713 | 48 | 10 | 3.0 | 6.0 | 0.00 | 0.00 | 0.00 | 89 | 1018.2 |
| 20260510003004 | 48 | 9 | 3.0 | 9.0 | 0.00 | 0.00 | 0.00 | 89 | 1018.2 |
| 20260510002504 | 48 | 5 | 5.0 | 11.0 | 0.00 | 0.00 | 0.00 | 89 | 1018.3 |
| 20260510002004 | 48 | 4 | 5.0 | 11.0 | 0.00 | 0.00 | 0.00 | 89 | 1018.3 |
| 20260510001715 | 48 | 4 | 5.0 | 11.0 | 0.00 | 0.00 | 0.00 | 89 | 1018.3 |
| 20260510001003 | 48 | 8 | 5.0 | 12.0 | 0.00 | 0.00 | 0.00 | 88 | 1018.3 |
| 20260510000505 | 48 | 7 | 5.0 | 12.0 | 0.00 | 0.00 | 0.00 | 88 | 1018.3 |
| 20260510000229 | 48 | 8 | 5.0 | 12.0 | 0.00 | 0.00 | 0.00 | 88 | 1018.3 |
| 20260509235504 | 49 | 8 | 4.0 | 9.0 | 0.00 | 0.00 | 0.00 | 88 | 1018.3 |
| 20260509235004 | 49 | 8 | 4.0 | 10.0 | 0.00 | 0.00 | 0.00 | 87 | 1018.3 |
| 20260509234504 | 49 | 6 | 4.0 | 10.0 | 0.00 | 0.00 | 0.00 | 87 | 1018.3 |
| 20260509234003 | 49 | 6 | 5.0 | 12.0 | 0.00 | 0.00 | 0.00 | 87 | 1018.2 |
| 20260509233503 | 49 | 6 | 6.0 | 13.0 | 0.00 | 0.00 | 0.00 | 86 | 1018.2 |
| 20260509233003 | 49 | 5 | 6.0 | 14.0 | 0.00 | 0.00 | 0.00 | 86 | 1018.2 |
| 20260509232506 | 49 | 5 | 6.0 | 14.0 | 0.00 | 0.00 | 0.00 | 86 | 1018.3 |
| 20260509232218 | 49 | 5 | 5.0 | 14.0 | 0.00 | 0.00 | 0.00 | 85 | 1018.3 |
| 20260509231716 | 49 | 5 | 4.0 | 11.0 | 0.00 | 0.00 | 0.00 | 85 | 1018.3 |
| 20260509231213 | 50 | 9 | 4.0 | 11.0 | 0.00 | 0.00 | 0.00 | 84 | 1018.5 |
| 20260509230504 | 50 | 10 | 4.0 | 9.0 | 0.00 | 0.00 | 0.00 | 84 | 1018.5 |
| 20260509230004 | 50 | 8 | 4.0 | 11.0 | 0.00 | 0.00 | 0.00 | 83 | 1018.5 |
| 20260509225504 | 50 | 10 | 4.0 | 12.0 | 0.00 | 0.00 | 0.00 | 82 | 1018.3 |
| 20260509225215 | 50 | 10 | 4.0 | 12.0 | 0.00 | 0.00 | 0.00 | 82 | 1018.3 |
| 20260509224503 | 50 | 11 | 5.0 | 11.0 | 0.00 | 0.00 | 0.00 | 81 | 1018.3 |
| 20260509224005 | 51 | 11 | 5.0 | 11.0 | 0.00 | 0.00 | 0.00 | 80 | 1018.2 |
| 20260509223504 | 51 | 8 | 5.0 | 9.0 | 0.00 | 0.00 | 0.00 | 80 | 1018.2 |
| 20260509223003 | 51 | 7 | 5.0 | 9.0 | 0.00 | 0.00 | 0.00 | 78 | 1018.2 |
| 20260509222503 | 51 | 8 | 6.0 | 12.0 | 0.00 | 0.00 | 0.00 | 77 | 1017.9 |
| 20260509222004 | 52 | 7 | 6.0 | 14.0 | 0.00 | 0.00 | 0.00 | 76 | 1017.9 |
| 20260509221503 | 52 | 9 | 6.0 | 14.0 | 0.00 | 0.00 | 0.00 | 75 | 1017.9 |
| 20260509221003 | 52 | 11 | 6.0 | 13.0 | 0.00 | 0.00 | 0.00 | 73 | 1017.8 |
| 20260509220503 | 52 | 10 | 6.0 | 13.0 | 0.00 | 0.00 | 0.00 | 72 | 1017.8 |
| 20260509220005 | 52 | 10 | 6.0 | 12.0 | 0.00 | 0.00 | 0.00 | 70 | 1017.8 |
| 20260509215713 | 52 | 9 | 6.0 | 12.0 | 0.00 | 0.00 | 0.00 | 69 | 1017.7 |
| 20260509215003 | 52 | 8 | 7.0 | 15.0 | 0.00 | 0.00 | 0.00 | 66 | 1017.7 |
| 20260509214504 | 52 | 8 | 6.0 | 13.0 | 0.00 | 0.00 | 0.00 | 63 | 1017.7 |
| 20260509214003 | 52 | 9 | 5.0 | 12.0 | 0.00 | 0.00 | 0.00 | 59 | 1017.7 |
| 20260509213505 | 53 | 9 | 5.0 | 12.0 | 0.00 | 0.00 | 0.00 | 57 | 1017.7 |
| 20260509213003 | 53 | 11 | 5.0 | 12.0 | 0.00 | 0.00 | 0.00 | 56 | 1017.7 |
| 20260509212504 | 53 | 10 | 5.0 | 12.0 | 0.00 | 0.00 | 0.00 | 55 | 1017.5 |
| 20260509212005 | 53 | 10 | 4.0 | 10.0 | 0.00 | 0.00 | 0.00 | 55 | 1017.5 |
| 20260509211503 | 54 | 11 | 4.0 | 10.0 | 0.00 | 0.00 | 0.00 | 54 | 1017.5 |
| 20260509211003 | 54 | 16 | 4.0 | 9.0 | 0.00 | 0.00 | 0.00 | 54 | 1017.2 |
| 20260509210503 | 54 | 20 | 4.0 | 11.0 | 0.00 | 0.00 | 0.00 | 54 | 1017.2 |
| 20260509210216 | 54 | 19 | 4.0 | 11.0 | 0.00 | 0.00 | 0.00 | 54 | 1017.2 |
| 20260509205503 | 54 | 21 | 4.0 | 9.0 | 0.00 | 0.00 | 0.00 | 53 | 1017.1 |
| 20260509205003 | 54 | 23 | 3.0 | 6.0 | 0.00 | 0.00 | 0.00 | 53 | 1017.1 |
| 20260509204503 | 54 | 24 | 3.0 | 7.0 | 0.00 | 0.00 | 0.00 | 53 | 1017.1 |
| 20260509204003 | 55 | 21 | 3.0 | 7.0 | 0.00 | 0.00 | 0.00 | 53 | 1016.8 |
| 20260509203504 | 55 | 19 | 2.0 | 6.0 | 0.00 | 0.00 | 0.00 | 52 | 1016.8 |
| 20260509203004 | 55 | 22 | 3.0 | 9.0 | 0.00 | 0.00 | 0.00 | 52 | 1016.8 |
| 20260509202504 | 55 | 22 | 4.0 | 9.0 | 0.00 | 0.00 | 0.00 | 52 | 1016.8 |
| 20260509202003 | 56 | 20 | 3.0 | 7.0 | 0.00 | 0.00 | 0.00 | 52 | 1016.8 |
| 20260509201718 | 56 | 24 | 3.0 | 7.0 | 0.00 | 0.00 | 0.00 | 52 | 1016.8 |
| 20260509201004 | 56 | 26 | 3.0 | 7.0 | 0.00 | 0.00 | 0.00 | 52 | 1016.7 |
| 20260509200504 | 56 | 21 | 3.0 | 6.0 | 0.00 | 0.00 | 0.00 | 53 | 1016.7 |
| 20260509200005 | 57 | 21 | 2.0 | 6.0 | 0.00 | 0.00 | 0.00 | 53 | 1016.7 |
| 20260509195714 | 57 | 22 | 2.0 | 6.0 | 0.00 | 0.00 | 0.00 | 53 | 1016.6 |
| 20260509195005 | 57 | 26 | 2.0 | 9.0 | 0.00 | 0.00 | 0.00 | 52 | 1016.6 |
| 20260509194504 | 58 | 27 | 2.0 | 6.0 | 0.00 | 0.00 | 0.00 | 51 | 1016.6 |
| 20260509194003 | 58 | 40 | 3.0 | 6.0 | 0.00 | 0.00 | 0.00 | 51 | 1016.6 |
| 20260509193503 | 59 | 42 | 3.0 | 9.0 | 0.00 | 0.00 | 0.00 | 51 | 1016.6 |
| 20260509193003 | 59 | 44 | 3.0 | 9.0 | 0.00 | 0.00 | 0.00 | 51 | 1016.6 |
| 20260509192503 | 59 | 52 | 4.0 | 7.0 | 0.00 | 0.00 | 0.00 | 51 | 1016.3 |
| 20260509192004 | 60 | 56 | 4.0 | 9.0 | 0.00 | 0.00 | 0.00 | 50 | 1016.3 |
| 20260509191713 | 60 | 57 | 4.0 | 9.0 | 0.00 | 0.00 | 0.00 | 50 | 1016.3 |
| 20260509191003 | 61 | 64 | 3.0 | 6.0 | 0.00 | 0.00 | 0.00 | 50 | 1016.1 |
| 20260509190505 | 61 | 70 | 3.0 | 7.0 | 0.00 | 0.00 | 0.00 | 49 | 1016.1 |
| 20260509190004 | 62 | 72 | 3.0 | 7.0 | 0.00 | 0.00 | 0.00 | 48 | 1016.1 |
| 20260509185504 | 62 | 76 | 3.0 | 7.0 | 0.00 | 0.00 | 0.00 | 48 | 1015.8 |
| 20260509185003 | 62 | 77 | 3.0 | 7.0 | 0.00 | 0.00 | 0.00 | 48 | 1015.8 |
| 20260509184503 | 62 | 75 | 3.0 | 9.0 | 0.00 | 0.00 | 0.00 | 47 | 1015.8 |
| 20260509184003 | 62 | 76 | 3.0 | 9.0 | 0.00 | 0.00 | 0.00 | 47 | 1015.6 |
| 20260509183503 | 62 | 78 | 3.0 | 6.0 | 0.00 | 0.00 | 0.00 | 46 | 1015.6 |
| 20260509183215 | 63 | 78 | 3.0 | 6.0 | 0.00 | 0.00 | 0.00 | 46 | 1015.6 |
| 20260509182503 | 63 | 80 | 3.0 | 9.0 | 0.00 | 0.00 | 0.00 | 45 | 1015.4 |
| 20260509182004 | 63 | 83 | 4.0 | 9.0 | 0.00 | 0.00 | 0.00 | 44 | 1015.4 |
| 20260509181504 | 64 | 93 | 3.0 | 7.0 | 0.00 | 0.00 | 0.00 | 44 | 1015.4 |
| 20260509181003 | 64 | 90 | 3.0 | 6.0 | 0.00 | 0.00 | 0.00 | 44 | 1015.3 |
| 20260509180715 | 64 | 89 | 3.0 | 6.0 | 0.00 | 0.00 | 0.00 | 43 | 1015.3 |
| 20260509180003 | 65 | 105 | 3.0 | 6.0 | 0.00 | 0.00 | 0.00 | 42 | 1015.3 |
| 20260509175503 | 66 | 103 | 2.0 | 5.0 | 0.00 | 0.00 | 0.00 | 41 | 1015.4 |
| 20260509175004 | 66 | 74 | 3.0 | 6.0 | 0.00 | 0.00 | 0.00 | 39 | 1015.4 |
| 20260509174717 | 67 | 57 | 3.0 | 6.0 | 0.00 | 0.00 | 0.00 | 39 | 1015.4 |
| 20260509174003 | 67 | 6 | 4.0 | 9.0 | 0.00 | 0.00 | 0.00 | 41 | 1015.3 |
| 20260509173504 | 67 | 4 | 4.0 | 9.0 | 0.00 | 0.00 | 0.00 | 42 | 1015.3 |
| 20260509173004 | 67 | 13 | 3.0 | 9.0 | 0.00 | 0.00 | 0.00 | 42 | 1015.3 |
| 20260509172503 | 67 | 34 | 3.0 | 9.0 | 0.00 | 0.00 | 0.00 | 39 | 1015.3 |
| 20260509172003 | 67 | 43 | 3.0 | 7.0 | 0.00 | 0.00 | 0.00 | 39 | 1015.3 |
| 20260509171503 | 67 | 47 | 4.0 | 9.0 | 0.00 | 0.00 | 0.00 | 38 | 1015.3 |
| 20260509171217 | 67 | 52 | 3.0 | 9.0 | 0.00 | 0.00 | 0.00 | 39 | 1015.5 |
| 20260509170715 | 67 | 62 | 4.0 | 9.0 | 0.00 | 0.00 | 0.00 | 40 | 1015.5 |
| 20260509170003 | 67 | 65 | 4.0 | 7.0 | 0.00 | 0.00 | 0.00 | 38 | 1015.5 |
| 20260509165504 | 68 | 73 | 4.0 | 6.0 | 0.00 | 0.00 | 0.00 | 37 | 1015.6 |
| 20260509165004 | 68 | 64 | 4.0 | 7.0 | 0.00 | 0.00 | 0.00 | 37 | 1015.6 |
| 20260509164712 | 68 | 57 | 4.0 | 7.0 | 0.00 | 0.00 | 0.00 | 37 | 1015.6 |
| 20260509164004 | 68 | 68 | 3.0 | 7.0 | 0.00 | 0.00 | 0.00 | 37 | 1015.6 |
| 20260509163503 | 68 | 74 | 3.0 | 7.0 | 0.00 | 0.00 | 0.00 | 36 | 1015.6 |
| 20260509163003 | 68 | 70 | 5.0 | 11.0 | 0.00 | 0.00 | 0.00 | 37 | 1015.6 |
| 20260509162714 | 68 | 71 | 5.0 | 12.0 | 0.00 | 0.00 | 0.00 | 36 | 1015.5 |
| 20260509162217 | 68 | 74 | 6.0 | 12.0 | 0.00 | 0.00 | 0.00 | 34 | 1015.5 |
| 20260509161715 | 68 | 67 | 4.0 | 9.0 | 0.00 | 0.00 | 0.00 | 38 | 1015.5 |
| 20260509161218 | 68 | 48 | 3.0 | 9.0 | 0.00 | 0.00 | 0.00 | 36 | 1015.6 |
| 20260509160504 | 68 | 56 | 3.0 | 11.0 | 0.00 | 0.00 | 0.00 | 35 | 1015.6 |
| 20260509160003 | 68 | 63 | 3.0 | 7.0 | 0.00 | 0.00 | 0.00 | 36 | 1015.6 |
| 20260509155717 | 68 | 63 | 3.0 | 7.0 | 0.00 | 0.00 | 0.00 | 36 | 1015.6 |
| 20260509155003 | 68 | 70 | 4.0 | 11.0 | 0.00 | 0.00 | 0.00 | 34 | 1015.6 |
| 20260509154504 | 69 | 71 | 5.0 | 11.0 | 0.00 | 0.00 | 0.00 | 34 | 1015.6 |
| 20260509154003 | 69 | 59 | 4.0 | 11.0 | 0.00 | 0.00 | 0.00 | 35 | 1015.6 |
| 20260509153504 | 70 | 47 | 3.0 | 10.0 | 0.00 | 0.00 | 0.00 | 33 | 1015.6 |
| 20260509153004 | 70 | 36 | 5.0 | 12.0 | 0.00 | 0.00 | 0.00 | 34 | 1015.6 |
| 20260509152715 | 70 | 35 | 5.0 | 12.0 | 0.00 | 0.00 | 0.00 | 33 | 1015.5 |
| 20260509152004 | 69 | 45 | 4.0 | 13.0 | 0.00 | 0.00 | 0.00 | 35 | 1015.5 |